Weather History for EHGR - January, 2014

Change the Weather History Date:

Thursday, January 9, 2014

  Actual Average Record
Temperature  
Mean Temperature 48 °F -  
Max Temperature 55 °F 42 °F 57 °F (2007)
Min Temperature 42 °F 32 °F 5 °F (2009)
Degree Days  
Heating Degree Days 16    
Moisture  
Dew Point 44 °F    
Average Humidity 82    
Maximum Humidity 94    
Minimum Humidity 59    
Precipitation  
Precipitation 0.00 in - - ()
Sea Level Pressure  
Sea Level Pressure 29.69 in    
Wind  
Wind Speed 13 mph ()    
Max Wind Speed 28 mph    
Max Gust Speed 39 mph    
Visibility 7.0 miles    
Events Rain    
Averages and records for this station are not official NWS values.
T = Trace of Precipitation, MM = Missing Value Source: Averaged Metar Reports

Daily Weather History Graph

Daily Weather History Graph

Search for Another Location

Airport or City:

Trip Planner

Search our weather history database for the weather conditions in past years. The results will help you decide how hot, cold, wet, or windy it might be!

Date:

Astronomy

Jan. 09, 2014 Rise Set
Actual Time 8:43 AM CET 4:51 PM CET
Civil Twilight 8:04 AM CET 5:30 PM CET
Nautical Twilight 7:21 AM CET 6:13 PM CET
Astronomical Twilight 6:41 AM CET 6:53 PM CET
Moon 12:26 PM CET (1/9) 2:14 AM CET (1/9)
Length of Visible Light 9h 26m
Length of Day
8h 07m
Waxing Gibbous, 63% of the Moon is Illuminated
Jan 9
Waxing Gibbous
Jan 16
Full
Jan 24
Last Quarter
Jan 30
New
Feb 6
First Quarter

Hourly Weather History & Observations

Time (CET) Temp. Windchill Dew Point Humidity Pressure Visibility Wind Dir Wind Speed Gust Speed Precip Events Conditions
12:00 AM 47 °F - 44 °F 87% 29.91 in 12 mi South 8.9 mph - -   Partly Cloudy
12:25 AM 46.4 °F 41.9 °F 44.6 °F 93% 29.89 in 6.2 mi SSE 9.2 mph - N/A   Partly Cloudy
12:55 AM 48.2 °F - 44.6 °F 87% 29.86 in 6.2 mi South 11.5 mph - N/A   Scattered Clouds
1:00 AM 48 °F - 45 °F 87% 29.88 in 14 mi South 11.2 mph - -   Partly Cloudy
1:25 AM 48.2 °F - 46.4 °F 93% 29.86 in 6.2 mi South 9.2 mph - N/A   Overcast
1:55 AM 50.0 °F - 46.4 °F 87% 29.83 in 6.2 mi South 11.5 mph - N/A   Overcast
2:00 AM 49 °F - 46 °F 87% 29.84 in 19 mi South 11.2 mph - -   Overcast
2:25 AM 50.0 °F - 46.4 °F 87% 29.83 in 6.2 mi South 11.5 mph - N/A   Overcast
2:55 AM 50.0 °F - 46.4 °F 87% 29.80 in 6.2 mi South 12.7 mph - N/A Rain Light Rain
3:00 AM 50 °F - 47 °F 86% 29.82 in 12 mi SSW 11.2 mph - - Rain Light Rain Showers
3:25 AM 50.0 °F - 48.2 °F 94% 29.80 in 6.2 mi SSW 11.5 mph - N/A Rain Light Rain
3:55 AM 50.0 °F - 48.2 °F 94% 29.77 in 6.2 mi South 9.2 mph - N/A Rain Light Rain
4:00 AM 50 °F - 49 °F 93% 29.78 in 14 mi South 8.9 mph - - Rain Light Drizzle
4:25 AM 50.0 °F - 48.2 °F 94% 29.77 in 6.2 mi South 10.4 mph - N/A Rain Light Rain
4:55 AM 50.0 °F - 48.2 °F 94% 29.74 in 6.2 mi South 10.4 mph - N/A   Mostly Cloudy
5:00 AM 51 °F - 49 °F 90% 29.74 in 19 mi South 11.2 mph - - Rain Rain
5:25 AM 51.8 °F - 50.0 °F 94% 29.71 in 6.2 mi South 13.8 mph - N/A   Overcast
5:55 AM 51.8 °F - 50.0 °F 94% 29.71 in 6.2 mi SSW 12.7 mph - N/A   Mostly Cloudy
5:58 AM 51.8 °F - 48.2 °F 88% 29.71 in 6.2 mi South 13.8 mph - N/A   Overcast
6:00 AM 51 °F - 49 °F 90% 29.71 in 16 mi South 15.7 mph - - Rain Rain
6:01 AM 51.8 °F - 48.2 °F 88% 29.71 in 6.2 mi South 15.0 mph - N/A   Mostly Cloudy
6:04 AM 51.8 °F - 48.2 °F 88% 29.68 in 6.2 mi South 16.1 mph - N/A   Mostly Cloudy
6:25 AM 51.8 °F - 48.2 °F 88% 29.68 in 6.2 mi South 16.1 mph - N/A   Mostly Cloudy
6:55 AM 51.8 °F - 48.2 °F 88% 29.65 in 6.2 mi South 18.4 mph - N/A   Mostly Cloudy
7:00 AM 51 °F - 48 °F 85% 29.67 in 19 mi South 17.9 mph - - Rain Rain
7:25 AM 51.8 °F - 48.2 °F 88% 29.65 in 6.2 mi SSW 15.0 mph - N/A   Scattered Clouds
7:55 AM 51.8 °F - 48.2 °F 88% 29.65 in 6.2 mi SSW 15.0 mph - N/A   Mostly Cloudy
8:00 AM 52 °F - 47 °F 79% 29.67 in 28 mi SSW 15.7 mph - -   Scattered Clouds
8:25 AM 53.6 °F - 48.2 °F 82% 29.65 in 6.2 mi SSW 13.8 mph - N/A   Overcast
8:32 AM 53.6 °F - 46.4 °F 77% 29.65 in 6.2 mi SSW 13.8 mph - N/A   Overcast
8:33 AM 53.6 °F - 48.2 °F 82% 29.65 in 6.2 mi SSW 13.8 mph - N/A   Overcast
8:36 AM 53.6 °F - 46.4 °F 77% 29.65 in 6.2 mi SSW 13.8 mph - N/A   Overcast
8:40 AM 53.6 °F - 46.4 °F 77% 29.65 in 6.2 mi SSW 13.8 mph - N/A   Mostly Cloudy
8:43 AM 53.6 °F - 46.4 °F 77% 29.65 in 6.2 mi SSW 13.8 mph - N/A   Mostly Cloudy
8:48 AM 53.6 °F - 46.4 °F 77% 29.65 in 6.2 mi SSW 13.8 mph 26.5 mph N/A   Mostly Cloudy
8:55 AM 53.6 °F - 48.2 °F 82% 29.65 in 6.2 mi SSW 15.0 mph 26.5 mph N/A   Overcast
9:00 AM 53 °F - 47 °F 74% 29.65 in 28 mi SSW 15.7 mph - -   Partly Cloudy
9:05 AM 53.6 °F - 48.2 °F 82% 29.65 in 6.2 mi SSW 15.0 mph - N/A   Mostly Cloudy
9:06 AM 53.6 °F - 48.2 °F 82% 29.65 in 6.2 mi SSW 16.1 mph - N/A   Overcast
9:25 AM 53.6 °F - 48.2 °F 82% 29.65 in 6.2 mi SW 15.0 mph - N/A   Mostly Cloudy
9:46 AM 53.6 °F - 46.4 °F 77% 29.65 in 6.2 mi SW 16.1 mph 27.6 mph N/A   Mostly Cloudy
9:55 AM 53.6 °F - 46.4 °F 77% 29.62 in 6.2 mi SW 16.1 mph - N/A   Mostly Cloudy
10:00 AM 54 °F - 47 °F 70% 29.64 in 28 mi SW 15.7 mph - -   Scattered Clouds
10:18 AM 53.6 °F - 46.4 °F 77% 29.62 in 6.2 mi SW 18.4 mph 29.9 mph N/A   Overcast
10:25 AM 53.6 °F - 46.4 °F 77% 29.62 in 6.2 mi SW 19.6 mph 32.2 mph N/A   Overcast
10:33 AM 53.6 °F - 46.4 °F 77% 29.62 in 6.2 mi SW 16.1 mph 28.8 mph N/A   Mostly Cloudy
10:44 AM 53.6 °F - 46.4 °F 77% 29.62 in 6.2 mi SW 19.6 mph 34.5 mph N/A   Overcast
10:55 AM 53.6 °F - 46.4 °F 77% 29.62 in 6.2 mi SW 17.3 mph - N/A   Overcast
11:00 AM 54 °F - 47 °F 70% 29.64 in 28 mi SW 17.9 mph - -   Mostly Cloudy
11:13 AM 55.4 °F - 46.4 °F 72% 29.62 in 6.2 mi SW 19.6 mph 36.8 mph N/A   Mostly Cloudy
11:17 AM 53.6 °F - 46.4 °F 77% 29.62 in 6.2 mi SW 20.7 mph 36.8 mph N/A   Mostly Cloudy
11:25 AM 53.6 °F - 46.4 °F 77% 29.62 in 6.2 mi SW 18.4 mph 33.4 mph N/A   Mostly Cloudy
11:40 AM 53.6 °F - 44.6 °F 72% 29.62 in 6.2 mi WSW 17.3 mph 29.9 mph N/A   Mostly Cloudy
11:55 AM 53.6 °F - 44.6 °F 72% 29.62 in 6.2 mi WSW 17.3 mph 29.9 mph N/A   Mostly Cloudy
12:00 PM 54 °F - 44 °F 59% 29.63 in 19 mi WSW 20.1 mph - -   Overcast
12:25 PM 53.6 °F - 42.8 °F 67% 29.62 in 6.2 mi SW 19.6 mph 36.8 mph N/A   Mostly Cloudy
12:55 PM 53.6 °F - 42.8 °F 67% 29.59 in 6.2 mi WSW 19.6 mph 34.5 mph N/A   Overcast
1:00 PM 53 °F - 43 °F 59% 29.62 in 12 mi WSW 20.1 mph - -   Partly Cloudy
1:18 PM 51.8 °F - 44.6 °F 76% 29.59 in 3.1 mi WSW 20.7 mph 36.8 mph N/A   Heavy Drizzle
1:22 PM 50.0 °F - 44.6 °F 82% 29.62 in 4.3 mi West 20.7 mph 32.2 mph N/A   Heavy Drizzle
1:25 PM 50.0 °F - 44.6 °F 82% 29.62 in 6.2 mi West 20.7 mph 32.2 mph N/A   Heavy Drizzle
1:38 PM 50.0 °F - 44.6 °F 82% 29.62 in 6.2 mi WSW 18.4 mph 32.2 mph N/A   Mostly Cloudy
1:55 PM 51.8 °F - 42.8 °F 71% 29.59 in 6.2 mi WSW 18.4 mph 33.4 mph N/A   Mostly Cloudy
1:57 PM 51.8 °F - 42.8 °F 71% 29.59 in 6.2 mi WSW 18.4 mph 33.4 mph N/A   Mostly Cloudy
2:00 PM 52 °F - 43 °F 64% 29.62 in 22 mi WSW 17.9 mph - - Rain Rain
2:07 PM 51.8 °F - 44.6 °F 76% 29.59 in 6.2 mi WSW 16.1 mph 31.1 mph N/A   Mostly Cloudy
2:11 PM 50.0 °F - 44.6 °F 82% 29.59 in 6.2 mi WSW 17.3 mph 31.1 mph N/A   Overcast
2:16 PM 50.0 °F - 44.6 °F 82% 29.59 in 6.2 mi WSW 16.1 mph 28.8 mph N/A Rain Light Rain
2:20 PM 50.0 °F - 44.6 °F 82% 29.59 in 6.2 mi SW 17.3 mph 28.8 mph N/A Rain Light Rain
2:25 PM 50.0 °F - 44.6 °F 82% 29.59 in 6.2 mi WSW 17.3 mph 28.8 mph N/A Rain Light Rain
2:29 PM 50.0 °F - 44.6 °F 82% 29.62 in 5.6 mi WSW 15.0 mph - N/A Rain Light Rain Showers
2:32 PM 50.0 °F - 44.6 °F 82% 29.62 in 5.6 mi WSW 15.0 mph - N/A Rain Light Rain Showers
2:40 PM 48.2 °F - 44.6 °F 87% 29.62 in 3.7 mi West 13.8 mph 27.6 mph N/A Rain Rain Showers
2:48 PM 48.2 °F - 44.6 °F 87% 29.62 in 5.0 mi West 20.7 mph 36.8 mph N/A Rain Light Rain Showers
2:55 PM 48.2 °F - 44.6 °F 87% 29.62 in 5.6 mi WSW 19.6 mph 36.8 mph N/A Rain Light Rain
3:00 PM 49 °F - 45 °F 81% 29.62 in 7 mi WSW 15.7 mph - - Rain Light Rain Showers
3:05 PM 48.2 °F - 44.6 °F 87% 29.62 in 6.2 mi WSW 16.1 mph 27.6 mph N/A Rain Light Rain
3:25 PM 48.2 °F - 44.6 °F 87% 29.62 in 6.2 mi WSW 13.8 mph 27.6 mph N/A   Mostly Cloudy
3:27 PM 48.2 °F - 44.6 °F 87% 29.62 in 6.2 mi WSW 12.7 mph - N/A   Mostly Cloudy
3:55 PM 48.2 °F - 44.6 °F 87% 29.62 in 6.2 mi West 16.1 mph - N/A   Mostly Cloudy
3:57 PM 48.2 °F - 44.6 °F 87% 29.62 in 6.2 mi West 16.1 mph - N/A   Mostly Cloudy
4:00 PM 49 °F - 44 °F 75% 29.65 in 17 mi West 15.7 mph - - Rain Rain
4:02 PM 48.2 °F - 42.8 °F 82% 29.62 in 6.2 mi West 16.1 mph - N/A   Mostly Cloudy
4:03 PM 48.2 °F - 42.8 °F 82% 29.62 in 6.2 mi West 16.1 mph 39.1 mph N/A   Mostly Cloudy
4:06 PM 48.2 °F - 41.0 °F 76% 29.62 in 6.2 mi West 27.6 mph 39.1 mph N/A   Mostly Cloudy
4:17 PM 46.4 °F 37.9 °F 39.2 °F 76% 29.65 in 6.2 mi West 25.3 mph 36.8 mph N/A   Mostly Cloudy
4:25 PM 46.4 °F 38.3 °F 39.2 °F 76% 29.65 in 6.2 mi West 23.0 mph - N/A   Overcast
4:26 PM 46.4 °F 38.5 °F 39.2 °F 76% 29.65 in 6.2 mi West 21.9 mph - N/A   Overcast
4:55 PM 46.4 °F 40.1 °F 39.2 °F 76% 29.68 in 6.2 mi West 15.0 mph 29.9 mph N/A   Overcast
5:00 PM 46 °F - 39 °F 69% 29.70 in 25 mi West 17.9 mph - -   Partly Cloudy
5:05 PM 46.4 °F 39.2 °F 39.2 °F 76% 29.68 in 6.2 mi West 18.4 mph 32.2 mph N/A   Mostly Cloudy
5:25 PM 46.4 °F 39.8 °F 41.0 °F 81% 29.71 in 6.2 mi West 16.1 mph 29.9 mph N/A Rain Light Rain
5:37 PM 44.6 °F 37.4 °F 41.0 °F 87% 29.71 in 6.2 mi West 16.1 mph 29.9 mph N/A Rain Light Rain
5:38 PM 46.4 °F 39.5 °F 41.0 °F 81% 29.71 in 6.2 mi West 17.3 mph 29.9 mph N/A Rain Light Rain
5:45 PM 44.6 °F 36.9 °F 41.0 °F 87% 29.71 in 3.7 mi West 18.4 mph 29.9 mph N/A Rain Light Rain
5:55 PM 44.6 °F 36.9 °F 41.0 °F 87% 29.71 in 6.2 mi West 18.4 mph 29.9 mph N/A   Drizzle
5:59 PM 44.6 °F 36.9 °F 41.0 °F 87% 29.71 in 6.2 mi West 18.4 mph 29.9 mph N/A Rain Light Rain
6:00 PM 45 °F - 41 °F 82% 29.74 in 5 mi West 17.9 mph - - Rain Light Rain Showers
6:06 PM 44.6 °F 37.2 °F 41.0 °F 87% 29.74 in 4.3 mi West 17.3 mph - N/A Rain Rain Showers
6:19 PM 44.6 °F 37.8 °F 41.0 °F 87% 29.74 in 6.2 mi West 15.0 mph - N/A Rain Light Rain
6:25 PM 44.6 °F 37.8 °F 41.0 °F 87% 29.74 in 6.2 mi West 15.0 mph - N/A   Mostly Cloudy
6:29 PM 44.6 °F 38.4 °F 41.0 °F 87% 29.74 in 6.2 mi West 12.7 mph - N/A   Mostly Cloudy
6:47 PM 44.6 °F 38.4 °F 41.0 °F 87% 29.74 in 6.2 mi West 12.7 mph - N/A Rain Light Rain
6:55 PM 44.6 °F 38.8 °F 41.0 °F 87% 29.77 in 6.2 mi West 11.5 mph - N/A   Mostly Cloudy
7:10 PM 44.6 °F 38.4 °F 39.2 °F 81% 29.77 in 6.2 mi West 12.7 mph - N/A   Overcast
7:25 PM 44.6 °F 38.8 °F 39.2 °F 81% 29.77 in 6.2 mi West 11.5 mph - N/A   Overcast
7:55 PM 44.6 °F 39.2 °F 39.2 °F 81% 29.77 in 6.2 mi West 10.4 mph - N/A   Partly Cloudy
8:00 PM 44 °F - 38 °F 73% 29.80 in 25 mi West 11.2 mph - - Rain Rain
8:25 PM 44.6 °F 39.7 °F 37.4 °F 76% 29.80 in 6.2 mi West 9.2 mph - N/A   Partly Cloudy
8:55 PM 42.8 °F 38.0 °F 37.4 °F 81% 29.80 in 6.2 mi WSW 8.1 mph - N/A   Partly Cloudy
9:37 PM 42.8 °F 38.6 °F 37.4 °F 81% 29.83 in 6.2 mi WSW 6.9 mph - N/A   Partly Cloudy
9:48 PM 42.8 °F 38.6 °F 39.2 °F 87% 29.83 in 6.2 mi WSW 6.9 mph - N/A   Mostly Cloudy
9:55 PM 42.8 °F 38.6 °F 39.2 °F 87% 29.83 in 6.2 mi WSW 6.9 mph - N/A   Mostly Cloudy
10:25 PM 44.6 °F 40.2 °F 39.2 °F 81% 29.83 in 6.2 mi WSW 8.1 mph - N/A   Overcast
10:47 PM 44.6 °F 39.7 °F 39.2 °F 81% 29.86 in 6.2 mi WSW 9.2 mph - N/A   Mostly Cloudy
10:55 PM 44.6 °F 39.2 °F 39.2 °F 81% 29.86 in 6.2 mi WSW 10.4 mph - N/A   Mostly Cloudy
11:25 PM 42.8 °F 37.5 °F 37.4 °F 81% 29.86 in 6.2 mi WSW 9.2 mph - N/A   Unknown